Regional Weather Roundup
Issued by NWS

Home | Current Version | Previous Version | Text Only | Print | Product List | Glossary On
Versions: 1 2 3 4 5 6 7 8 9 10 11 12 13 14 15 16 17 18 19 20 21 22 23 24 25 26 27 28 29 30 31 32 33 34 35 36 37 38 39 40 41 42 43 44 45 46 47 48 49 50
000
ASUS43 KMKX 171211
RWRWI

WISCONSIN REGIONAL WEATHER ROUNDUP
NATIONAL WEATHER SERVICE MILWAUKEE/SULLIVAN WI
700 AM CDT THU AUG 17 2017

NOTE: "FAIR" INDICATES FEW OR NO CLOUDS BELOW 12,000 FEET WITH NO
SIGNIFICANT WEATHER AND/OR OBSTRUCTIONS TO VISIBILITY.

WIZ001-002-006>008-014>016-023>028-171300-
NORTHWEST WISCONSIN

CITY           SKY/WX    TMP DP  RH WIND       PRES   REMARKS
SUPERIOR ARPT  DRIZZLE   61  61 100 NE14G24   29.62S
6HR MIN TEMP:  61; 6HR MAX TEMP:  62; 6HR PCP:  0.21;

ASHLAND        CLOUDY    62  61  96 NE10      29.62F
6HR MIN TEMP:  62; 6HR MAX TEMP:  65; 6HR PCP:  0.70;

HAYWARD        LGT RAIN  65  63  93 E7        29.59S FOG
6HR MIN TEMP:  65; 6HR MAX TEMP:  66; 6HR PCP:  0.16;

SIREN          CLOUDY    66  65  97 CALM      29.56S
6HR MIN TEMP:  65; 6HR MAX TEMP:  66; 6HR PCP:  0.30;

CUMBERLAND     RAIN      64  63  94 SE5       29.56S
RICE LAKE      RAIN      66  64  96 E6        29.58R
6HR MIN TEMP:  66; 6HR MAX TEMP:  67; 6HR PCP:  0.17;

CHETEK         LGT RAIN  66  65  97 SE8       29.57R
6HR MIN TEMP:  66; 6HR MAX TEMP:  67; 6HR PCP:  0.20;

LADYSMITH      CLOUDY    66  65  97 S6        29.61R
6HR MIN TEMP:  65; 6HR MAX TEMP:  67; 6HR PCP:  0.50;

EAU CLAIRE     CLOUDY    67  64  90 S10       29.55F
6HR MIN TEMP:  67; 6HR MAX TEMP:  70; 6HR PCP:  0.25;

MENOMONIE      CLOUDY    67  65  94 E7        29.53F
6HR MIN TEMP:  67; 6HR MAX TEMP:  70;

NEW RICHMOND   RAIN      65  65  99 E10       29.51F
6HR MIN TEMP:  65; 6HR MAX TEMP:  69; 6HR PCP:  0.17;

OSCEOLA        CLOUDY    66  66 100 E8        29.55R
6HR MIN TEMP:  66; 6HR MAX TEMP:  70; 6HR PCP:  0.10;

$$

WIZ003>005-009-010-017-018-171300-
NORTH CENTRAL WISCONSIN

CITY           SKY/WX    TMP DP  RH WIND       PRES   REMARKS
MANITOWISH WTR CLOUDY    63  63 100 E7        29.65S FOG
6HR MIN TEMP:  60; 6HR MAX TEMP:  64; 6HR PCP:  0.40;

ARBOR VITAE    FOG       64  64  97 E7        29.64F VSB 1
6HR MIN TEMP:  62; 6HR MAX TEMP:  65; 6HR PCP:  0.35;

WOODRUFF       FOG       64  64  97 E7        29.64F VSB 1
6HR MIN TEMP:  62; 6HR MAX TEMP:  65; 6HR PCP:  0.35;

RHINELANDER    FOG       64  64 100 E8        29.66S VSB 1/4
6HR MIN TEMP:  61; 6HR MAX TEMP:  64; 6HR PCP:  0.16;

EAGLE RIVER    CLOUDY    64  64 100 SE7       29.67S FOG
6HR MIN TEMP:  61; 6HR MAX TEMP:  64;

LAND O LAKES   CLOUDY    65  64  99 SE6       29.69S
6HR MIN TEMP:  62; 6HR MAX TEMP:  65;

PHILLIPS       CLOUDY    64  64 100 E5        29.61F
6HR MIN TEMP:  62; 6HR MAX TEMP:  64; 6HR PCP:  0.39;

TOMAHAWK       FOG       65  64  97 SE3       29.65R VSB 1/2
6HR MIN TEMP:  61; 6HR MAX TEMP:  65;

MEDFORD        MOCLDY    67  65  94 S10       29.62S
6HR MIN TEMP:  62; 6HR MAX TEMP:  67; 6HR PCP:  0.26;

MERRILL        FOG       66  66 100 SE6       29.64R VSB 3/4
$$

WIZ029-030-035-036-043>047-171300-
CENTRAL WISCONSIN

CITY           SKY/WX    TMP DP  RH WIND       PRES   REMARKS
WAUSAU         CLOUDY    68  68 100 S3        29.62R FOG
6HR MIN TEMP:  63; 6HR MAX TEMP:  68; 6HR PCP:  0.15;

MOSINEE        MOCLDY    68  68 100 SE9       29.64F FOG
MARSHFIELD     CLOUDY    68  64  87 SW14      29.62S
6HR MIN TEMP:  65; 6HR MAX TEMP:  70; 6HR PCP:  0.04;

STEVENS POINT  CLOUDY    69  69 100 S8        29.65S
6HR MIN TEMP:  63; 6HR MAX TEMP:  69;

WAUPACA        CLEAR     73  72  98 SE9       29.65F FOG
6HR MIN TEMP:  67; 6HR MAX TEMP:  73; 6HR PCP:  0.08;

WAUTOMA        PTCLDY    72  70  93 S10       29.67R
6HR MIN TEMP:  68; 6HR MAX TEMP:  73; 6HR PCP:  0.02;

WISC RAPIDS    CLEAR     70  68  93 SW9       29.65R
6HR MIN TEMP:  67; 6HR MAX TEMP:  72; 6HR PCP:  0.04;

CAMP DOUGLAS   NOT AVBL
$$

WIZ011>013-019>022-031-037>040-048>050-171300-
NORTHEAST WISCONSIN

CITY           SKY/WX    TMP DP  RH WIND       PRES   REMARKS
ANTIGO         FOG       66  66 100 SE8       29.67S VSB<1/4
6HR MIN TEMP:  60; 6HR MAX TEMP:  66; 6HR PCP:  0.27;

SHAWANO        CLOUDY    73  70  93 S3        29.65S FOG
6HR MIN TEMP:  67; 6HR MAX TEMP:  73; 6HR PCP:  0.12;

OCONTO         CLOUDY    71  70  97 SE9       29.66S
6HR MIN TEMP:  67; 6HR MAX TEMP:  71; 6HR PCP:  0.31;

STURGEON BAY   LGT RAIN  70  70 100 S12       29.69F FOG
6HR MIN TEMP:  69; 6HR MAX TEMP:  70; 6HR PCP:  0.43;

GREEN BAY      LGT RAIN  72  72 100 S12       29.67S
6HR MIN TEMP:  66; 6HR MAX TEMP:  73; 6HR PCP:  0.23;

MANITOWOC      LGT RAIN  68  65  90 CALM      29.71R
6HR MIN TEMP:  68; 6HR MAX TEMP:  73; 6HR PCP:  0.65;

APPLETON       MOCLDY    72  72 100 S10       29.66S
CLINTONVILLE   CLOUDY    70  70 100 S7        29.65S FOG
OSHKOSH        PTCLDY    71  69  93 S9        29.67S
6HR MIN TEMP:  69; 6HR MAX TEMP:  73; 6HR PCP:  0.23;

$$

WIZ032>034-041-042-053>061-171300-
SOUTHWEST WISCONSIN

CITY           SKY/WX    TMP DP  RH WIND       PRES   REMARKS
LA CROSSE      CLOUDY    71  65  81 S14       29.60F
6HR MIN TEMP:  71; 6HR MAX TEMP:  77;

SPARTA         CLOUDY    67  63  88 S8        29.64F
6HR MIN TEMP:  66; 6HR MAX TEMP:  72;

VIROQUA        CLOUDY    66  65  99 SW13G18   29.67S
6HR MIN TEMP:  66; 6HR MAX TEMP:  73;

BOSCOBEL       CLOUDY    70  65  84 SW8       29.68S
6HR MIN TEMP:  69; 6HR MAX TEMP:  77;

PRAIRIE DU CHI CLOUDY    69  63  81 SW10G21   29.68S
6HR MIN TEMP:  68; 6HR MAX TEMP:  75;

PLATTEVILLE    CLEAR     68  68 100 S9        29.72S
6HR MIN TEMP:  67; 6HR MAX TEMP:  74;

$$

WIZ056-057-062-063-064-067-068-171300-
SOUTH CENTRAL WISCONSIN

CITY           SKY/WX    TMP DP  RH WIND       PRES   REMARKS
REEDSBURG      PTCLDY    68  68 100 S7        29.67S
6HR MIN TEMP:  68; 6HR MAX TEMP:  73; 6HR PCP:  0.08;

BARABOO/DELLS  PTCLDY    70  65  86 SW9       29.68R
6HR MIN TEMP:  70; 6HR MAX TEMP:  73;

LONE ROCK      CLEAR     70  66  87 SW8       29.68R
6HR MIN TEMP:  70; 6HR MAX TEMP:  76;

MINERAL POINT  CLEAR     68  68 100 S7        29.71F
MADISON        MOCLDY    72  71  97 S8        29.69S
6HR MIN TEMP:  72; 6HR MAX TEMP:  74; 6HR PCP:  0.11;

MIDDLETON      CLOUDY    73  73  99 SW10      29.71R
6HR MIN TEMP:  73; 6HR MAX TEMP:  75;

WATERTOWN      CLOUDY    70  70 100 S8        29.71F
6HR MIN TEMP:  70; 6HR MAX TEMP:  73;

MONROE         CLOUDY    70  68  94 S14       29.73R FOG
JANESVILLE     CLOUDY    72  72 100 S14       29.73S
$$

WIZ051-052-058>065-066-070>072-171300-
SOUTHEAST WISCONSIN

CITY           SKY/WX    TMP DP  RH WIND       PRES   REMARKS
MILWAUKEE      CLOUDY    73  71  93 SW9       29.73S
6HR MIN TEMP:  73; 6HR MAX TEMP:  76; 6HR PCP:  0.22;

WAUKESHA       CLOUDY    70  68  94 SW9       29.75S
MILWAUKEE/TIMM CLOUDY    70  66  88 S7        29.74S
RACINE         LGT RAIN  72  70  93 SW8       29.76S
6HR MIN TEMP:  72; 6HR MAX TEMP:  75; 6HR PCP:  0.09;

KENOSHA        CLOUDY    72  69  90 SW10      29.76S
6HR MIN TEMP:  72; 6HR MAX TEMP:  75; 6HR PCP: TRACE;

FOND DU LAC    CLOUDY    73  69  87 S10       29.69R
6HR MIN TEMP:  70; 6HR MAX TEMP:  74; 6HR PCP:  0.73;

SHEBOYGAN      CLOUDY    73  73 100 S10       29.71S
6HR MIN TEMP:  70; 6HR MAX TEMP:  73; 6HR PCP:  0.01;

WEST BEND      CLOUDY    70  70 100 S12       29.71F
JUNEAU         CLOUDY    71  69  95 S9        29.72S
6HR MIN TEMP:  71; 6HR MAX TEMP:  73;

$$

LSZ147-162-171300-
LAKE SUPERIOR

STATION/POSITION TIME  TEMP    WIND        PRES    WAVE
                       AIR SEA DIR/SP/G            HT/PER
                 (UTC) (F)     (DEG/KT/KT) (MB)    (FT/S)
W MID LAKE BUOY  1150   61 60   40/ 17/ 21 1004.6S   3/ 4
DEVILS ISLAND    1200   61      60/ 29/ 34 1003.2F
SAXON HARBOR     1140   63      70/  3/  5 1003.0S
$$

LMZ867-665-643>646-171300-
LAKE MICHIGAN

STATION/POSITION TIME  TEMP    WIND        PRES    WAVE
                       AIR SEA DIR/SP/G            HT/PER
                 (UTC) (F)     (DEG/KT/KT) (MB)    (FT/S)
S GREEN BAY BUOY 1200   72 71  160/ 14/ 16 1004.6
N MID LAKE BUOY  1150   68 67  140/ 19/ 21 1006.4R   4/ 4
NORTHPORT PIER   1140   69     150/ 14/ 19 1005.8S
KEWAUNEE LAKESHO 1



USA.gov is the U.S. government's official web portal to all federal, state and local government web resources and services.